Location: Chemnitz
(49.5500°N, 11.5830°E)
Time: 07:22:06
(UTC+01:00)

ISS - Pass Details

Date: 12 November 2017
Orbit: 401 x 407 km, 51.6° (Epoch: 18 November)

Event Time Altitude Azimuth Distance (km) Brightness Sun altitude
Exits shadow 04:20:13 16° 78° (ENE) 1,165 -0.7 -29.1°
Drops below altitude 10° 04:20:58 10° 82° (E) 1,457 -0.1 -29.0°
Sets 04:23:04 0° 86° (E) 2,316 1.3 -28.7°
